Regional Weather Roundup
Issued by NWS Charleston, SC

Current Version | Previous Version | Text Only | Print | Product List | Glossary On
Versions: 1 2 3 4 5 6 7 8 9 10 11 12 13 14 15 16 17 18 19 20 21 22 23 24 25 26 27 28 29 30 31 32 33 34 35 36 37 38 39 40 41 42 43 44 45 46 47 48 49 50
000 ASUS42 KCHS 270411 RWRCHS REGIONAL WEATHER ROUNDUP NATIONAL WEATHER SERVICE CHARLESTON SC 1100 PM EST SUN FEB 26 2017 NOTE: "FAIR" INDICATES FEW OR NO CLOUDS BELOW 12,000 FEET WITH NO SIGNIFICANT WEATHER AND/OR OBSTRUCTIONS TO VISIBILITY. NOT ALL STATIONS ARE QUALITY CONTROLLED. USE DATA WITH CAUTION... ESPECIALLY DEWPOINT OBSERVATIONS. SCZ027-030-031-034>040-042>050-270500- ...SOUTHEAST SOUTH CAROLINA... CITY SKY/WX TMP DP RH WIND PRES REMARKS N CHARLESTON FAIR 47 38 71 CALM 30.30R WATERFRONT PRK N/A 57 46 66 CALM 30.30R MOUNT PLEASANT LGT RAIN 43 39 87 CALM 30.32R JOHNS ISLAND FAIR 45 41 87 CALM 30.31R PINOPOLIS N/A 52 39 62 VRB3 30.22R MONCKS CORNER FAIR 39 36 87 CALM 30.31R SUMMERVILLE FAIR 43 36 75 CALM 30.31S BEAUFORT MCAS FAIR 46 43 89 CALM 30.30R BEAUFORT ARPT FAIR 50 43 76 CALM 30.30R HILTON HEAD IS FAIR 48 41 76 CALM 30.31R WALTERBORO FAIR 41 36 81 CALM 30.32R ALLENDALE FAIR 43 34 70 E6G12 30.29R ...SOUTHERN MIDLANDS AND PEE DEE... CITY SKY/WX TMP DP RH WIND PRES REMARKS GEORGETOWN FAIR 37 36 93 CALM 30.33R KINGSTREE FAIR 37 32 81 CALM 30.32R ORANGEBURG FAIR 42 32 67 CALM 30.30R BARNWELL FAIR 41 32 70 CALM 30.30R AIKEN FAIR 37 30 75 CALM 30.32R MANNING FAIR 36 23 60 MISG 30.31R COLUMBIA FAIR 41 32 70 CALM 30.30R SUMTER FAIR 41 29 62 CALM 30.29R FLORENCE FAIR 39 32 76 CALM 30.32R MYRTLE BEACH FAIR 45 38 76 CALM 30.32F N MYRTLE BEACH FAIR 40 39 97 NE3 30.32R $$ GAZ063-065-086>088-099>101-113>116-118-119-134>141-150-270500- ...SOUTHEAST GEORGIA... CITY SKY/WX TMP DP RH WIND PRES REMARKS SAVANNAH ARPT FAIR 47 38 71 CALM 30.30R HUNTER AAF FAIR 48 43 84 CALM 30.27R FORT STEWART FAIR 45 39 79 CALM 30.27R STATESBORO FAIR 40 40 100 CALM 30.29R SYLVANIA FAIR N/A N/A N/A CALM 30.30R CLAXTON FAIR N/A N/A N/A CALM 30.30R ...CSRA...CENTRAL AND FAR SOUTHEAST GEORGIA... CITY SKY/WX TMP DP RH WIND PRES REMARKS THOMSON FAIR 41 36 81 CALM 30.32R AUGUSTA-BUSH FAIR 41 31 67 CALM 30.28R AUGUSTA-DANIEL FAIR 51 26 37 SE3 30.28R SWAINSBORO FAIR 43 36 75 CALM 30.29S VIDALIA FAIR 46 41 81 SE3 30.28R EASTMAN FAIR 42 29 60 CALM 30.30R HAZLEHURST FAIR 55 32 41 SE5 30.27R ALMA FAIR 43 39 86 CALM 30.28R WAYCROSS FAIR 47 44 87 CALM 30.27S JESUP FAIR 43 37 81 CALM 30.29R BAXLEY FAIR 46 41 81 CALM 30.28S BRUNSWICK FAIR 45 45 100 CALM 30.29R FOG SAINT SIMONS FAIR 60 39 45 E9 30.27S $$ SCZ027-028-034-036>038-045-046-048>050-GAZ119-141-270500- ...LAKE AND SUPPLEMENTAL COASTAL OBSERVATIONS... STATION/POSITION TIME TEMP WIND PRES WAVE SWELL AIR SEA DIR/SP/G HT/PER HT/PER/DIR (UTC) (F) (DEG/KT/KT) (MB) (FT/S) (FT/S/D) WINYAH BAY 0245 45 320/ 2 1026.0 LAKE MURRAY 0320 49 CALM / 1 1025.1 ACE BASIN NERRS NOT AVBL FORT PULASKI 0348 56 63 170/ 3/ 4 1026.0R SAPELO ISLAND 0300 50 110/ 4 1025.0 $$ ANZ835-935-AMZ111-154-330-350-352-354-370-450-454-472-270500- ...C-MAN AND BUOY OBSERVATIONS... STATION/POSITION TIME TEMP WIND PRES WAVE SWELL AIR SEA DIR/SP/G HT/PER HT/PER/DIR (UTC) (F) (DEG/KT/KT) (MB) (FT/S) (FT/S/D) BUOY 41004 0250 60 69 80/ 4/ 8 1025.8 3/ 9 3/110/ 9 BUOY 41008 0250 62 62 100/ 8/ 10 1025.2 2/10 2/ 90/10 FOLLY BEACH CMAN 0300 59 130/ 4/ 5 1026.4R CAPERS NEARSHORE 0308 58 60 140/ 6/ 8 1025.9R FRIPP NEARSHORE 0308 60 62 170/ 6/ 8 1025.3R STATION/POSITION TIME TEMP WIND PRES WAVE SWELL AIR SEA DIR/SP/G HT/PER HT/PER/DIR (UTC) (F) (DEG/KT/KT) (MB) (FT/S) (FT/S/D) 5E ST. MARYS GA 0330 64 N/A 2/11 2/110/11 FRYING PAN BUOY 0350 59 69 360/ 6/ 8 1026.8R 3/ 9 3/120/ 9 BUOY 41025 0350 56 72 320/ 8/ 14 1026.9R 4/ 9 3/120/ 9 CAPE LOOKOUT NC 0300 56 320/ 7/ 9 1026.2R BUOY 41002 0350 64 71 10/ 10/ 12 1025.8R 6/ 7 5/330/ 7 BUOY 41010 NOT AVBL ST AUGUSTINE FL 0400 64 66 70/ 11/ 13 1025.3F $$

USA.gov is the U.S. government's official web portal to all federal, state and local government web resources and services.